This demonstration page uses our WeatherBlox Daily Observations layout. Learn more.

Left ArrowRight Arrow

39.12711, -84.51439

Hourly Observations for January 12, 2017

Temp ( °F °C ) Dew Point ( °F °C ) Humidity (%) Winds ( mph kmh ) Pressure ( in mb ) Visibility ( mi km ) Precip ( " mm )
12:53 am 00:53 Mostly Cloudy 62 16.7 56 13.3 80 80 SSW 22 35 29.88 1012 10 16 N/A
1:53 am 01:53 Mostly Cloudy 63 17.2 57 13.9 81 81 SSW 20 31 29.89 1012 10 16 N/A
2:53 am 02:53 Cloudy 64 17.8 57 13.9 78 78 SSW 22 35 29.91 1013 10 16 N/A
3:53 am 03:53 Cloudy 65 18.3 57 13.9 76 76 SSW 22 35 29.91 1013 10 16 N/A
4:53 am 04:53 Partly Cloudy 65 18.3 57 13.9 76 76 SSW 22 35 29.91 1013 10 16 N/A
5:53 am 05:53 Cloudy 65 18.3 58 14.4 78 78 SSW 23 37 29.89 1012 10 16 N/A
6:53 am 06:53 Cloudy 66 18.9 57 13.9 73 73 SSW 18 30 29.91 1013 10 16 N/A
7:53 am 07:53 Cloudy 66 18.9 58 14.4 75 75 SSW 23 37 29.92 1013 10 16 N/A
8:53 am 08:53 Cloudy 66 18.9 58 14.4 75 75 SSW 20 31 29.93 1014 10 16 N/A
9:53 am 09:53 Cloudy 66 18.9 58 14.4 75 75 SSW 22 35 29.95 1014 10 16 N/A
10:53 am 10:53 Cloudy 67 19.4 58 14.4 73 73 SSW 23 37 29.96 1015 10 16 N/A
11:29 am 11:29 Cloudy with Light Rain 66 18.9 59 15 78 78 SW 26 43 29.94 1014 6 10 N/A
11:53 am 11:53 Cloudy with Light Rain 65 18.3 59 15 81 81 SSW 22 35 29.97 1015 9 14 0.01 0.25
12:53 pm 12:53 Cloudy 66 18.9 61 16.1 84 84 SSW 18 30 29.96 1014 10 16 0.01 0.25
1:53 pm 13:53 Cloudy 67 19.4 60 15.6 79 79 SSW 23 37 29.95 1014 10 16 N/A
2:53 pm 14:53 Cloudy 67 19.4 59 15 76 76 SW 15 24 29.99 1016 10 16 N/A
3:07 pm 15:07 Cloudy with Heavy Rain 54 12.2 53 11.7 97 97 NW 15 24 30.06 1018 2 3 0.12 3.05
3:11 pm 15:11 Cloudy with Rain 54 12.2 53 11.7 97 97 WNW 12 19 30.06 1018 2 3 0.13 3.30
3:18 pm 15:18 Cloudy with Heavy Rain 54 12 54 12 100 100 WNW 14 22 30.06 1018 2 3 N/A
3:53 pm 15:53 Cloudy with Light Rain 54 12 54 12 100 100 NW 8 13 30.10 1019 3 5 0.23 5.84
4:53 pm 16:53 Cloudy 53 11.7 52 11.1 96 96 WNW 9 15 30.14 1021 10 16 N/A
5:53 pm 17:53 Cloudy with Light Rain 50 10 46 7.8 86 86 NW 9 15 30.21 1023 10 16 0.01 0.25
6:28 pm 18:28 Cloudy 47 8.3 46 7.8 97 97 NW 10 17 30.21 1023 10 16 0.06 1.52
6:53 pm 18:53 Cloudy 47 8.3 46 7.8 97 97 WNW 13 20 30.25 1025 10 16 0.06 1.52
7:53 pm 19:53 Cloudy 45 7.2 43 6.1 93 93 NNW 12 19 30.30 1026 10 16 N/A
8:53 pm 20:53 Cloudy 41 5 36 2.2 82 82 NNW 13 20 30.36 1028 10 16 N/A
9:53 pm 21:53 Cloudy 39 3.9 35 1.7 86 86 NNW 10 17 30.39 1029 10 16 N/A
10:53 pm 22:53 Cloudy 38 3.3 34 1.1 86 86 NW 7 11 30.43 1031 10 16 N/A
11:53 pm 23:53 Cloudy 38 3.3 33 0.6 83 83 NNW 8 13 30.45 1031 10 16 N/A

Powered by AerisWeather